Погода в Массе

Италия     44°02′06″N   10°08′22″E
темп.,
°C
ветер,
м/с
пор.,
м/с
влажн.,
%
обл.,
%
осадки,
мм/ч
давл.,
гПа
погр.,
м
21 мая, сб
сб2123:00+16св11625 0.0 102522
02:00+15св116799 0.0 102425
05:00+15ссв117398 0.0 102321
08:00+18ююз116712 0.0 1022179
11:00+22юз33530 0.0 1021769
14:00+22ююз32575 0.0 1020829
17:00+21ююз32635 0.0 1019641
20:00+18ююз118212 0.0 1018196
22 мая, вс
вс2223:00+16св11915 0.0 101917
02:00+15ссв11845 0.0 101719
05:00+14ссв22785 0.0 101622
08:00+18юз016896 0.0 1016237
11:00+22юз22525 0.0 1015649
14:00+24юз325032 0.0 1014750
17:00+22юз325447 0.0 1013529
20:00+19з126287 0.0 1012161
23 мая, пн
пн2323:00+17св1162100 0.0 101313
02:00+16всв2259100 0.0 101325
05:00+15св2167100 0.0 101121
08:00+18ююз016593 0.0 1011173
11:00+22ююз22472 0.0 1011642
14:00+24юз32415 0.0 1010791
17:00+23юз324518 0.0 1009575
20:00+19ю127145 0.0 1008130
24 мая, вт
вт2423:00+16всв11730 0.0 100926
02:00+16с11680 0.0 100814
05:00+15св117317 0.0 100816
08:00+18в0172100 0.0 1008224
11:00+21зюз236229 0.0 1008968
14:00+23юз335285 0.1 10081113
17:00+23юз22535 0.0 1007920
20:00+19юз227467 0.0 1008171
25 мая, ср
ср2523:00+16вюв12905 0.0 101066
02:00+16всв229013 0.0 1010133
05:00+14св218937 0.1 101126
08:00+18св2276100 0.3 101194
11:00+22ююз2259100 0.0 1012932
14:00+24ююз235499 0.0 10121152
17:00+22ююз226898 0.6 1012539
20:00+20юз1176100 1.1 1013123